Regional Weather Roundup
Issued by NWS

Home | Current Version | Previous Version | Graphics & Text | Print | Product List | Glossary On
Versions: 1 2 3 4 5 6 7 8 9 10 11 12 13 14 15 16 17 18 19 20 21 22 23 24 25 26 27 28 29 30 31 32 33 34 35 36 37 38 39 40 41 42 43 44 45 46 47 48 49 50
000
ASUS43 KMKX 011711
RWRWI

WISCONSIN REGIONAL WEATHER ROUNDUP
NATIONAL WEATHER SERVICE MILWAUKEE/SULLIVAN WI
1200 PM CDT SAT AUG 01 2015

NOTE: "FAIR" INDICATES FEW OR NO CLOUDS BELOW 12,000 FEET WITH NO
SIGNIFICANT WEATHER AND/OR OBSTRUCTIONS TO VISIBILITY.

WIZ001-002-006>008-014>016-023>028-011800-
NORTHWEST WISCONSIN

CITY           SKY/WX    TMP DP  RH WIND       PRES   REMARKS
SUPERIOR ARPT  MOSUNNY   78  54  43 W14G23    29.90F
ASHLAND        MOSUNNY   76  55  48 VRB5      29.90F
HAYWARD        MOSUNNY   76  50  40 W8        29.94F
SIREN          SUNNY     78  51  39 W7        29.95F
CUMBERLAND     MOSUNNY   73  50  43 W12       29.97S
RICE LAKE      SUNNY     76  52  43 W7        29.98S
CHETEK         SUNNY     77  55  45 SW8       29.97S
LADYSMITH      SUNNY     77  50  38 W12       29.98S
EAU CLAIRE     SUNNY     79  51  37 SW8       29.96S
MENOMONIE      SUNNY     78  53  41 SW9       29.98S
NEW RICHMOND   SUNNY     79  53  40 W7        29.97S
OSCEOLA        SUNNY     79  56  44 W8        29.99S
$$

WIZ003>005-009-010-017-018-011800-
NORTH CENTRAL WISCONSIN

CITY           SKY/WX    TMP DP  RH WIND       PRES   REMARKS
MANITOWISH WTR PTSUNNY   71  52  50 NW16      29.94S
ARBOR VITAE    SUNNY     72  52  49 NW9G22    29.94S
WOODRUFF       SUNNY     72  52  49 NW9G22    29.94S
RHINELANDER    MOSUNNY   74  51  44 NW10G18   29.96S
EAGLE RIVER    PTSUNNY   72  49  43 NW12      29.93F
LAND O LAKES   PTSUNNY   72  49  44 NW9G17    29.93F
PHILLIPS       MOSUNNY   74  53  47 W9        29.95S
TOMAHAWK       SUNNY     73  51  46 NW12G17   29.96S
MEDFORD        MOSUNNY   75  53  45 W10       29.97S
MERRILL        NOT AVBL
$$

WIZ029-030-035-036-043>047-011800-
CENTRAL WISCONSIN

CITY           SKY/WX    TMP DP  RH WIND       PRES   REMARKS
WAUSAU         SUNNY     77  47  34 NW13      29.94S
MOSINEE        MOSUNNY   75  50  41 NW10G20   29.97F
MARSHFIELD     SUNNY     78  49  35 NW8       29.97S
STEVENS POINT  SUNNY     76  48  38 N12G17    29.96F
WAUPACA        SUNNY     81  46  29 NW9G20    29.95F HX  80
WAUTOMA        SUNNY     81  49  32 W9        29.97S HX  80
WISC RAPIDS    PTSUNNY   79  50  36 VRB7      29.98S
CAMP DOUGLAS   MOSUNNY   79  55  44 NW7       29.97F
$$

WIZ011>013-019>022-031-037>040-048>050-011800-
NORTHEAST WISCONSIN

CITY           SKY/WX    TMP DP  RH WIND       PRES   REMARKS
ANTIGO         MOSUNNY   74  53  47 W15       29.95S
SHAWANO        SUNNY     78  53  41 W10       29.93S
OCONTO         MOSUNNY   78  53  41 W13G21    29.90S
STURGEON BAY   SUNNY     75  54  46 W12G18    29.93S
GREEN BAY      SUNNY     78  55  44 NW13      29.92S
MANITOWOC      SUNNY     79  49  34 MISG      29.92S
APPLETON       MOSUNNY   79  46  31 NW13G21   29.95S
CLINTONVILLE   SUNNY     79  46  31 NW14G20   29.93F
OSHKOSH        SUNNY     79  51  37 W10       29.94F
$$

WIZ032>034-041-042-053>061-011800-
SOUTHWEST WISCONSIN

CITY           SKY/WX    TMP DP  RH WIND       PRES   REMARKS
LA CROSSE      SUNNY     80  58  46 W3        29.96F HX  80
SPARTA         SUNNY     80  49  32 CALM      29.98S HX  80
VIROQUA        SUNNY     78  62  59 SW5       29.99F
BOSCOBEL       MOSUNNY   83  64  52 W12G18    29.97F HX  84
PRAIRIE DU CHI PTSUNNY   82  62  50 W10       29.97F HX  83
PLATTEVILLE    SUNNY     81  64  56 W13G20    29.99F HX  82
$$

WIZ056-057-062-063-064-067-068-011800-
SOUTH CENTRAL WISCONSIN

CITY           SKY/WX    TMP DP  RH WIND       PRES   REMARKS
REEDSBURG      SUNNY     79  54  42 SW6       29.97S HX  80
BARABOO/DELLS  MOSUNNY   79  49  34 NW9       29.97F
LONE ROCK      MOSUNNY   80  60  50 W10       29.97F HX  81
MINERAL POINT  SUNNY     81  61  50 W15       29.99F HX  81
MADISON        MOSUNNY   79  58  48 VRB3      29.97F HX  80
MIDDLETON      MOSUNNY   80  56  42 SW5       29.99F HX  80
WATERTOWN      CLOUDY    74  57  56 NW3       29.98F
MONROE         PTSUNNY   81  59  47 SW12      29.99F HX  81
JANESVILLE     SUNNY     82  55  39 W9        29.98F HX  82
$$

WIZ051-052-058>065-066-070>072-011800-
SOUTHEAST WISCONSIN

CITY           SKY/WX    TMP DP  RH WIND       PRES   REMARKS
MILWAUKEE      PTSUNNY   77  53  43 NW9       29.98R
WAUKESHA       MOSUNNY   72  54  53 W6        29.99F
MILWAUKEE/TIMM MOSUNNY   77  48  36 W9        29.97F
RACINE         PTSUNNY   74  59  59 N7        30.00R
BURLINGTON     MOSUNNY   78  54  43 N5        29.98F
KENOSHA        PTSUNNY   78  56  46 NW7       29.99R
FOND DU LAC    MOSUNNY   80  51  36 NW10      29.96S HX  80
SHEBOYGAN      SUNNY     80  51  36 W15       29.94S HX  80
WEST BEND      MOSUNNY   77  46  33 W10       29.96F
JUNEAU         MOSUNNY   75  55  51 W8        29.98F
$$

LSZ147-162-011800-
LAKE SUPERIOR

STATION/POSITION TIME  TEMP    WIND        PRES    WAVE
                       AIR SEA DIR/SP/G            HT/PER
                 (UTC) (F)     (DEG/KT/KT) (MB)    (FT/S)
W MID LAKE BUOY  1650   58 54  230/ 12/ 14 1011.1F   1/ 4
DEVILS ISLAND    1700   66     230/ 13/ 16 1011.8F
PORT WING        1600   70     260/  7/ 10 1012.9F
SAXON HARBOR     1640   71                 1012.5S
$$

LMZ867-665-643>646-011800-
LAKE MICHIGAN

STATION/POSITION TIME  TEMP    WIND        PRES    WAVE
                       AIR SEA DIR/SP/G            HT/PER
                 (UTC) (F)     (DEG/KT/KT) (MB)    (FT/S)
CHAMBERS ISLAND  1600   73     260/  4/  8 1011.9F
S GREEN BAY BUOY 1700   70 69  260/  6/  8 1014.2
N MID LAKE BUOY  1650   68 68  260/ 10/ 12 1011.3F   1/ 3
NORTHPORT PIER   1600   72     260/  5/ 10 1011.9S
SISTER BAY       1629   78     280/  6/  8   N/A
ALGOMA LAKESHORE 1612          310/  9/ 15   N/A
KEWAUNEE LAKESHO 1600   75     290/  7/ 14 1012.3S
SHEBOYGAN LAKESH 1700   77     290/ 14/ 19 1013.6F
PORT WASHINGTON  1600   80     280/  8/ 12 1014.9R
ATWATER BUOY     1700   73 66  260/  6/ 10 1015.9F
MILWAUKEE LAKESH 1600   76     310/  7/ 10   N/A
KENOSHA   LAKESH 1700   79     290/  8/ 15 1014.2S
$$

TC  - TEMPERATURE IN CELSIUS
VSB - VISIBILITY IN STATUTE MILES
WCI - WIND CHILL INDEX
HX  - HEAT INDEX



USA.gov is the U.S. government's official web portal to all federal, state and local government web resources and services.